Wind_Speed
12 12 13 15 14 12 13 12 10 9 8 9 10 11 12 13 14 15 15 14 12 13 14 14 13 14 13 11 10 10 11 12 12 10 10 11 13 12 11 12 14 14 13 14 14 12 11 12 13 13 14 13 13 13 14 15 15 15 14 14 14 13 13 13 13 13 13 13 13 13 12 12 11 11 11 9 9 9 8 8 7 7 6 7 7
13 14 14 15 15 14 15 14 13 11 9 10 12 15 15 14 14 14 16 15 14 14 16 17 15 14 13 12 12 12 11 12 13 12 10 11 12 12 13 14 15 16 15 15 16 16 14 14 14 14 15 15 15 14 15 16 17 17 16 16 15 15 15 14 14 14 14 14 14 14 13 13 12 12 11 10 10 10 9 9 9 8 8 8 8
14 15 16 16 16 16 16 15 15 15 12 12 14 16 16 16 16 15 16 16 16 17 18 20 19 17 15 14 15 14 13 13 13 13 12 13 14 14 14 14 16 18 17 17 17 18 17 16 16 16 16 16 16 16 16 17 19 19 18 17 17 16 16 16 16 15 15 15 15 15 14 14 13 12 12 11 11 11 10 10 10 9 9 9 9
15 16 17 18 18 17 17 17 17 17 13 11 12 13 14 16 17 18 18 18 18 19 20 21 21 19 18 17 17 16 15 15 14 13 14 15 17 17 16 15 17 18 18 18 18 18 19 18 18 18 18 17 17 17 17 17 18 20 20 19 19 18 18 18 17 17 16 16 16 16 15 15 14 13 13 12 12 12 11 11 11 10 10 10 10
16 17 17 18 19 19 19 19 19 19 17 14 13 14 16 17 20 21 21 20 19 20 21 22 22 20 20 20 20 20 19 17 15 14 15 17 18 19 18 18 18 18 18 19 19 19 19 19 20 19 19 19 19 18 18 18 18 20 22 21 20 20 20 19 19 19 18 18 17 16 16 16 15 15 14 14 13 13 12 12 12 12 11 11 10
17 18 18 18 19 20 21 21 22 23 21 19 18 18 19 20 23 23 23 22 19 19 21 22 22 21 22 23 23 23 23 22 19 17 17 17 19 20 20 20 21 21 20 20 19 20 20 20 20 21 21 20 20 20 20 19 19 20 22 23 22 22 21 21 21 20 20 19 19 18 17 17 16 16 15 15 14 14 13 13 13 13 13 12 12
17 18 19 19 19 21 22 24 25 25 23 22 20 20 20 21 23 23 23 22 20 20 21 22 21 22 24 26 26 25 24 24 24 22 21 20 20 22 22 22 23 24 22 21 20 20 21 21 21 21 22 22 22 21 21 21 21 21 22 23 24 24 23 23 23 22 22 21 20 20 19 18 18 17 17 16 16 15 15 14 14 14 14 14 13
19 20 19 18 18 20 23 25 26 24 23 22 20 19 21 21 21 22 22 22 22 22 21 21 21 22 24 26 27 26 23 23 23 23 24 24 23 23 23 24 25 25 24 23 21 21 21 22 22 22 22 23 23 23 22 22 22 22 22 23 24 25 25 25 25 24 24 23 22 22 21 20 19 19 18 18 17 17 16 16 16 15 15 15 15
21 21 19 17 17 18 20 22 22 20 19 20 20 20 21 21 19 19 21 21 23 23 22 21 22 22 23 24 24 24 24 24 23 23 25 26 26 24 24 25 26 27 27 25 24 24 22 22 22 22 23 24 24 24 24 23 23 23 23 24 24 25 26 27 27 26 26 25 25 24 23 22 21 21 20 19 19 18 18 17 17 16 16 15 15
22 22 21 21 20 20 19 18 18 18 19 20 21 22 22 22 21 20 21 22 22 23 22 22 23 23 24 24 24 24 25 27 28 27 27 26 27 27 26 26 26 27 28 28 27 26 25 23 23 23 23 24 24 25 25 25 24 24 24 25 26 26 27 27 28 28 28 27 26 26 25 24 23 23 22 21 20 20 19 18 17 17 16 16 15
22 23 23 24 23 21 18 16 17 19 20 22 23 24 23 23 23 22 21 22 22 23 23 24 25 25 25 25 26 26 27 29 30 30 29 27 27 28 27 28 28 26 28 27 27 28 27 24 24 23 23 24 25 25 26 26 26 25 25 26 27 27 27 27 28 28 28 28 28 27 26 25 24 23 23 22 21 21 20 19 18 17 17 16 16
22 22 22 22 20 19 18 17 18 20 22 23 23 23 22 21 21 20 20 20 21 22 23 24 24 24 25 25 25 25 25 25 25 26 27 27 25 25 25 27 27 27 28 27 27 27 26 25 25 25 25 25 25 25 26 27 27 27 27 27 27 28 29 29 29 28 28 28 28 28 27 26 25 25 24 23 23 22 21 20 19 18 17 17 16
18 18 18 19 18 17 17 17 18 21 22 22 21 21 20 20 19 19 19 19 19 19 20 21 22 23 23 23 23 23 23 23 23 23 23 23 22 22 22 24 27 29 30 28 27 26 26 27 26 25 26 26 26 25 25 27 28 28 28 28 28 29 30 30 30 30 29 29 29 28 28 27 26 26 25 24 24 23 22 21 20 19 18 18 17
16 16 15 16 16 15 15 18 19 20 21 21 21 21 21 21 20 20 19 19 19 17 17 19 20 21 21 22 23 23 22 20 20 21 21 21 20 20 21 23 27 30 31 30 29 28 26 27 27 26 27 27 27 27 26 27 29 30 30 30 30 30 30 30 31 31 30 30 30 29 28 28 27 27 26 26 25 24 23 22 21 20 20 19 19
15 16 17 17 17 16 17 18 20 20 21 22 21 21 21 22 21 19 18 19 18 16 16 16 17 18 18 19 20 21 20 17 18 21 21 20 18 18 19 22 27 31 33 32 31 30 28 28 28 27 28 29 29 29 27 28 29 31 32 31 31 31 30 30 30 30 30 30 29 29 28 28 27 27 27 27 26 26 25 23 23 22 22 21 20
14 15 17 18 18 18 18 18 19 20 21 21 20 20 21 21 20 18 18 19 18 16 14 14 16 17 15 16 17 17 17 17 18 19 17 17 18 16 17 20 24 30 34 34 32 30 31 32 31 29 31 32 31 30 30 29 29 30 32 32 32 32 31 31 30 31 30 30 29 29 29 28 27 27 27 27 27 27 25 24 24 24 23 23 22
16 16 16 17 17 17 17 17 18 19 20 21 20 20 19 19 19 19 18 18 18 17 14 14 16 17 17 19 17 14 15 17 19 19 16 16 19 18 18 20 23 27 32 35 35 33 31 33 33 30 32 34 31 30 31 31 30 30 30 32 33 33 33 31 31 31 31 30 30 29 29 29 28 28 28 28 28 28 27 26 25 25 24 24 23
15 14 14 14 14 14 14 15 16 17 18 19 20 20 18 18 19 19 16 16 17 18 17 15 15 16 17 19 18 17 19 20 21 23 22 20 20 20 20 22 24 24 27 30 33 33 31 31 30 27 28 31 30 30 32 32 31 30 30 31 32 33 33 33 32 32 32 31 31 30 30 29 29 29 29 29 29 29 28 28 27 26 25 25 24
11 10 11 11 11 12 12 13 14 14 15 16 17 17 17 18 18 16 15 15 16 17 17 16 15 16 15 15 17 19 20 20 19 22 24 25 24 23 22 24 25 24 23 25 27 31 31 30 31 29 28 30 33 34 34 33 32 32 32 31 32 32 32 33 32 32 32 32 32 31 31 30 30 30 30 30 30 30 30 29 29 28 27 26 25
9 8 9 10 11 11 12 13 13 14 15 15 15 16 16 15 15 14 14 14 14 16 17 15 15 18 17 17 17 18 19 19 19 20 23 27 28 26 25 26 25 23 23 26 28 31 32 31 32 33 31 31 33 33 34 34 34 34 35 33 32 31 30 31 33 33 33 33 33 33 32 32 31 31 31 31 32 32 31 31 30 29 28 27 26
7 7 8 9 10 11 11 11 13 13 14 15 14 14 14 13 12 13 13 14 15 16 16 15 17 19 20 20 21 21 22 21 20 20 20 25 27 26 26 25 25 26 28 30 30 29 30 31 31 33 34 34 32 33 35 37 37 36 35 34 32 31 30 31 31 32 32 33 33 34 34 33 33 32 32 32 32 33 32 32 31 30 29 28 27
7 7 9 9 9 10 10 11 12 13 13 13 13 13 13 12 13 14 13 15 16 15 15 17 17 18 18 19 21 21 21 20 21 21 20 22 25 27 28 26 26 29 30 30 30 28 28 30 30 32 35 35 34 35 37 38 38 36 34 33 33 34 32 32 31 31 32 33 33 34 34 34 33 33 33 32 32 33 33 33 32 31 30 30 28
6 7 8 8 9 11 11 11 12 12 12 12 12 13 12 12 13 14 14 14 15 15 15 16 16 16 17 17 19 20 19 20 21 21 21 22 25 28 30 30 30 32 31 31 33 33 31 30 30 32 34 36 36 36 37 37 35 34 35 33 32 33 33 32 33 32 32 33 34 34 34 34 34 33 33 32 32 32 33 33 33 32 32 31 30
6 8 8 7 10 12 11 11 11 12 12 11 11 12 12 12 12 13 13 13 14 14 14 16 16 15 16 16 18 18 19 20 21 21 23 25 27 30 33 33 33 35 34 33 36 36 34 31 30 32 32 35 38 37 37 37 36 35 36 34 32 33 33 32 34 33 32 33 35 35 35 35 35 34 33 32 32 32 33 34 34 34 33 33 32
6 7 8 9 11 12 12 11 11 12 12 11 11 12 12 12 12 12 12 12 12 13 14 15 15 15 16 16 17 18 19 20 21 22 24 25 27 30 33 33 33 35 36 34 35 36 36 32 30 32 32 34 37 39 38 39 38 35 34 35 36 36 36 34 34 35 34 33 35 36 36 37 36 35 35 34 34 33 33 34 34 35 35 34 34
6 8 9 9 10 12 12 12 12 12 12 12 12 12 12 12 13 13 13 12 11 11 12 13 14 16 17 18 19 19 19 19 20 23 25 25 26 29 31 32 33 36 37 36 34 35 37 36 32 30 31 32 34 37 39 40 40 37 34 36 38 37 37 37 35 37 37 34 34 36 36 36 37 36 36 36 35 35 34 34 34 35 35 35 35
8 8 8 9 10 11 12 12 12 12 12 12 12 13 13 13 14 13 13 12 11 10 11 13 15 18 19 19 20 19 18 20 22 25 26 26 27 29 31 32 33 35 37 36 35 35 36 36 35 32 31 31 31 33 36 39 41 42 39 39 41 38 36 37 37 39 40 36 34 35 35 35 36 36 36 36 35 35 35 34 34 35 35 35 35
8 7 7 9 11 12 12 12 12 12 12 12 13 13 14 15 15 14 13 12 11 12 13 15 18 19 20 19 18 17 19 24 27 28 28 28 29 29 29 30 31 34 36 35 34 35 35 35 36 37 35 32 31 31 33 36 40 44 44 42 43 41 36 37 40 40 41 39 35 34 35 35 36 36 36 36 35 35 35 35 35 35 35 34 34
7 7 8 10 12 12 13 13 12 12 12 12 13 13 14 15 15 15 13 12 12 13 15 17 19 18 18 17 16 19 22 25 27 26 26 27 28 28 29 29 29 31 35 36 36 36 36 35 35 38 38 35 33 32 32 36 38 41 44 44 44 44 39 36 37 38 39 40 38 35 33 34 34 34 34 34 34 34 34 35 36 36 36 35 34
8 9 10 11 12 13 13 14 13 13 13 13 14 14 15 15 15 15 14 12 12 13 15 17 17 17 16 16 17 21 23 24 24 24 25 27 28 28 29 29 28 30 32 35 39 38 34 34 35 38 39 37 34 32 33 33 32 32 37 41 43 46 44 39 35 34 36 38 39 36 34 34 33 33 32 32 32 33 33 34 35 37 37 36 35
10 11 11 12 12 13 14 14 14 13 13 13 14 15 16 15 15 14 13 13 13 14 16 16 16 16 16 17 19 21 21 22 24 26 27 28 28 28 30 30 29 29 30 31 38 41 35 33 36 39 40 39 36 33 32 30 27 27 31 35 38 40 40 37 34 33 33 33 35 34 34 35 34 34 33 33 32 33 33 34 35 36 37 37 36
11 11 12 12 13 14 14 14 14 15 15 15 15 16 17 17 17 15 14 14 15 15 16 15 15 17 17 19 19 19 20 23 26 28 28 28 29 29 30 31 31 31 30 30 35 41 39 37 39 40 39 39 37 33 32 30 28 28 29 32 34 33 34 34 33 33 33 33 34 34 34 35 35 35 35 33 33 33 33 35 36 37 38 37 37
12 12 11 12 12 14 15 15 16 17 17 17 17 17 17 18 18 17 16 16 16 16 16 16 16 17 18 19 18 18 20 24 27 30 30 30 30 31 31 32 33 32 31 31 34 39 40 37 38 38 36 34 34 32 31 31 30 29 31 33 32 31 32 34 33 34 35 35 37 36 34 34 35 35 35 33 32 32 33 35 36 37 38 38 37
12 12 12 13 12 14 15 16 17 18 18 18 17 18 18 19 19 18 17 16 17 17 17 17 18 18 19 19 18 18 20 24 27 30 32 31 30 32 33 32 32 32 31 30 32 35 38 37 36 36 33 30 32 33 30 31 31 32 33 35 34 33 32 32 32 34 33 34 37 38 36 34 34 35 35 34 33 33 33 34 35 36 37 37 37
11 13 14 14 14 14 16 17 18 18 18 19 19 19 18 19 20 18 17 17 18 18 18 19 20 20 20 19 16 17 19 22 25 29 31 33 32 32 31 30 30 32 31 30 30 32 35 36 35 34 32 29 31 32 30 30 31 32 34 35 35 34 34 34 33 32 32 32 36 39 36 34 34 36 35 34 33 33 33 33 33 34 35 36 36
13 13 13 13 14 16 18 18 18 19 19 21 22 20 19 19 20 20 20 19 19 19 19 20 22 22 21 20 17 17 19 21 24 28 31 32 33 32 29 28 30 31 32 31 30 31 33 34 34 34 33 30 30 30 30 29 30 31 33 33 33 32 32 34 35 32 31 31 34 35 34 32 34 36 36 35 33 32 33 33 32 32 33 34 35
13 12 12 14 16 17 18 18 19 20 21 22 24 23 21 20 21 22 22 22 21 19 20 22 24 24 22 21 19 18 19 20 23 28 30 30 31 32 28 26 29 32 33 33 31 30 32 33 33 34 35 32 30 31 31 30 31 33 33 31 31 31 31 32 33 32 29 29 30 31 30 31 33 35 35 34 32 31 32 32 32 33 33 35 36
13 13 14 16 17 17 18 19 20 20 21 22 24 25 23 20 21 23 22 21 21 21 22 24 24 23 23 23 22 20 19 19 22 25 28 29 29 30 28 28 31 33 34 34 32 30 31 31 30 30 32 32 32 34 34 32 31 32 32 31 31 31 30 31 32 33 30 28 28 29 30 31 32 33 34 33 31 31 31 32 33 34 35 35 35
13 14 14 15 15 17 19 19 20 21 21 20 22 24 23 19 18 21 20 19 19 21 24 25 24 23 24 25 25 22 19 18 21 24 26 29 29 28 29 33 36 37 38 37 34 30 30 30 29 27 28 30 31 33 34 33 32 31 31 32 34 32 30 30 32 35 36 33 30 30 31 32 32 33 33 33 31 31 31 32 33 34 34 33 33
13 13 13 15 17 18 18 19 20 20 20 19 20 22 21 18 16 18 19 18 17 20 25 25 24 23 25 26 26 23 21 20 21 24 26 28 29 29 31 36 40 41 41 41 38 33 31 30 29 28 28 28 28 30 31 31 31 32 31 32 33 32 31 32 33 35 37 36 33 33 33 32 33 33 33 32 31 31 31 32 32 33 33 32 32
14 13 13 16 18 18 17 17 17 18 18 18 18 17 17 16 16 16 18 19 19 21 25 26 25 26 26 27 27 25 24 23 22 24 25 27 28 29 33 37 41 43 43 42 42 38 33 32 30 29 30 31 30 29 30 31 31 31 30 31 33 34 34 36 34 33 33 34 34 35 34 34 35 35 35 33 32 31 32 33 32 33 33 33 32
16 13 13 15 16 15 15 16 16 15 17 17 15 14 14 15 16 15 16 18 20 21 24 25 26 28 29 29 29 29 28 24 21 24 26 26 27 28 32 36 39 42 43 43 43 39 35 33 32 29 29 32 33 30 29 29 29 30 30 31 34 34 34 37 36 34 33 33 34 36 36 36 37 38 38 35 33 33 34 34 33 33 33 32 32
16 14 13 14 14 15 15 14 14 16 19 19 17 16 15 13 14 15 16 19 21 21 22 24 26 28 30 31 31 30 27 23 19 22 27 25 24 27 31 35 38 41 44 44 42 39 35 33 32 30 29 31 33 31 30 29 28 29 31 32 33 33 34 36 36 35 35 34 35 36 37 37 37 38 39 37 35 34 34 34 33 32 32 32 32
15 14 14 14 16 16 14 12 15 18 19 19 18 18 18 16 14 16 18 19 21 22 24 26 27 26 28 31 33 29 25 24 23 22 25 24 25 28 32 34 38 41 43 42 38 36 35 34 33 32 31 32 33 32 31 29 26 27 30 31 30 32 35 36 36 36 34 32 34 36 38 37 36 36 38 38 36 35 35 34 33 32 31 32 31
16 15 15 16 16 16 14 14 17 19 18 18 19 20 21 20 18 18 20 22 23 23 24 25 26 27 26 29 32 27 23 26 27 24 23 24 27 31 32 34 38 41 42 40 36 35 35 35 35 35 34 32 33 33 31 29 26 26 29 29 28 31 34 36 37 36 31 30 33 37 38 38 37 37 38 39 38 36 34 34 33 32 31 31 31
17 16 15 16 17 16 17 17 18 19 21 22 22 23 23 21 19 20 22 25 25 24 23 22 24 27 26 27 27 23 21 23 24 23 23 25 29 32 32 35 38 41 43 43 42 39 36 35 37 38 37 34 34 34 32 31 31 29 27 26 27 31 34 33 33 31 28 27 30 35 39 39 37 37 38 39 38 37 35 34 33 33 31 31 32
18 17 17 17 18 17 17 19 19 20 22 23 23 24 24 21 20 20 22 23 24 24 23 20 21 24 25 24 22 21 21 21 20 20 23 26 30 31 31 34 39 42 45 46 45 41 37 36 38 40 40 38 37 37 35 32 32 32 30 27 27 30 32 31 30 29 28 24 23 29 36 37 35 36 38 38 38 38 36 34 33 33 32 32 32
19 19 19 19 19 18 17 19 21 19 20 22 23 24 24 22 21 20 20 20 21 22 23 20 20 22 22 23 23 20 19 18 17 19 23 27 29 29 29 34 39 44 48 48 46 43 40 40 41 39 39 39 39 40 39 34 32 32 31 30 30 29 27 26 28 30 29 24 20 23 28 28 27 30 34 36 38 40 39 36 34 33 33 32 32
18 19 20 19 19 19 17 17 19 19 21 22 22 23 23 21 20 19 18 17 18 21 22 20 19 19 20 23 23 19 17 18 18 20 23 26 27 25 27 34 40 45 50 49 47 45 44 44 43 38 35 38 40 40 39 37 35 33 30 30 31 29 25 25 27 30 31 29 24 22 23 24 24 26 28 30 35 39 39 38 36 33 32 33 32
17 19 19 19 20 21 18 16 17 20 22 21 20 22 22 19 18 17 16 16 18 20 22 20 18 18 19 20 19 16 17 20 21 22 25 25 23 22 27 34 40 45 49 48 49 50 49 49 45 34 28 33 36 37 39 39 37 37 34 31 28 26 27 29 29 29 30 31 29 25 24 26 26 27 27 26 30 37 39 38 37 34 33 33 33
17 19 20 20 21 21 18 14 14 17 19 17 18 21 20 16 16 15 15 17 19 20 21 20 19 19 19 19 18 17 19 21 22 24 24 22 20 21 28 35 39 43 46 47 51 52 51 52 49 36 24 23 27 32 37 37 38 40 39 33 27 25 28 31 30 29 29 31 30 28 27 27 26 27 28 25 27 34 37 37 37 36 36 35 36
Wind_Direction
274 281 284 285 289 292 296 301 304 301 304 319 330 329 320 315 314 314 313 312 312 310 308 308 311 313 312 313 315 308 301 296 293 292 295 288 285 288 278 271 276 272 264 259 255 251 248 248 246 244 243 239 232 225 222 220 218 217 217 218 219 221 221 221 222 221 218 216 215 214 215 216 217 222 223 222 224 223 225 229 232 234 237 241 243
277 281 286 290 293 296 297 298 301 302 304 311 320 322 321 316 311 309 310 312 311 309 306 305 307 305 300 302 302 299 297 296 295 291 288 286 285 282 269 266 270 269 268 264 258 254 249 248 247 244 242 241 238 233 230 226 223 222 221 220 220 222 223 223 224 225 223 220 219 219 219 221 222 224 223 223 227 227 228 232 235 239 242 246 251
282 285 289 293 296 300 303 304 303 304 303 305 314 319 317 314 309 304 303 304 305 305 303 302 302 300 295 295 292 290 289 291 292 289 284 277 272 271 268 263 262 265 268 265 260 256 252 247 245 245 242 238 237 238 237 233 228 225 224 223 222 222 223 224 224 225 227 225 222 222 222 225 226 227 227 226 228 232 234 236 238 241 245 248 251
283 287 291 294 294 297 302 302 300 299 298 298 309 314 312 310 307 302 297 293 295 298 300 301 302 300 295 292 290 285 281 282 283 282 277 272 271 272 269 264 260 263 266 263 260 257 255 250 244 243 244 240 236 236 238 239 235 229 226 225 224 223 223 223 224 225 227 228 227 225 224 226 227 229 231 230 230 233 236 239 241 243 246 248 250
283 286 289 290 290 292 295 296 293 290 287 288 295 302 307 312 313 310 304 297 294 293 295 297 298 298 295 291 291 289 282 276 274 280 277 271 273 273 269 265 260 258 258 260 259 256 253 252 247 243 243 243 239 236 235 239 241 235 229 226 225 225 224 224 224 225 226 229 231 229 226 226 227 229 230 231 231 232 236 239 244 247 249 251 251
278 284 285 285 289 292 290 289 286 282 283 287 294 301 308 314 314 311 306 304 302 297 295 293 290 289 290 289 291 292 286 276 271 276 280 276 273 273 271 266 259 255 253 254 257 257 253 251 249 246 243 243 242 238 235 236 239 239 235 229 226 225 225 226 225 225 226 229 231 231 229 227 227 229 230 233 233 234 237 240 244 249 252 253 253
281 286 286 288 291 292 289 286 283 282 284 289 296 303 309 311 309 306 301 301 303 302 300 296 290 284 284 286 289 292 288 281 274 270 275 278 272 269 269 263 257 255 251 250 253 255 253 250 248 248 245 244 242 241 239 237 235 237 238 235 230 226 225 226 226 226 226 227 229 230 230 230 230 230 232 234 237 239 241 243 245 247 250 253 253
288 287 287 291 292 292 291 287 284 282 282 288 298 304 307 309 306 303 301 301 303 303 301 298 296 290 287 286 286 287 285 281 278 273 275 279 276 269 264 259 256 255 249 247 249 250 251 250 248 247 247 245 243 242 241 240 238 235 236 238 236 232 228 227 227 227 227 227 228 229 231 232 232 232 234 235 238 241 243 245 246 247 248 251 252
291 289 291 295 297 297 294 290 289 288 291 299 306 306 307 308 307 305 304 306 307 304 300 299 299 296 292 289 285 285 283 282 281 280 280 280 277 271 263 258 254 252 251 245 243 245 246 247 247 245 245 246 244 242 241 240 241 239 236 236 237 237 234 231 229 229 229 228 229 229 231 233 233 234 235 237 239 241 243 245 247 248 248 248 250
293 293 294 297 300 301 300 303 305 306 305 303 303 305 307 306 305 305 306 308 309 307 303 301 300 295 292 289 286 284 284 285 285 286 287 283 276 271 265 260 254 252 253 247 242 244 243 243 246 246 245 245 245 244 242 240 240 241 240 238 237 237 238 237 234 232 231 230 230 230 232 233 234 235 237 238 239 239 241 243 245 246 247 247 248
298 297 298 300 302 304 305 307 307 306 304 301 302 305 305 304 304 305 307 307 307 306 303 301 298 294 291 288 286 284 283 284 284 284 285 284 278 271 264 262 260 254 251 247 243 242 240 240 242 244 246 246 245 245 244 242 240 240 240 240 239 238 238 238 238 237 235 233 232 232 233 234 235 237 238 238 238 239 240 241 242 244 245 246 246
302 299 297 297 300 303 302 301 302 303 303 303 304 305 304 303 303 304 305 304 303 303 301 301 300 297 293 292 291 289 286 284 285 285 283 281 278 272 262 259 257 250 250 253 249 244 240 242 244 244 245 246 245 244 245 245 242 240 240 240 241 241 240 239 239 239 239 238 236 235 235 236 238 238 238 238 238 238 239 240 240 241 243 244 245
301 297 294 296 296 295 296 299 304 304 302 303 303 305 307 305 305 305 305 303 303 304 301 300 300 297 297 300 299 295 294 295 295 295 290 282 277 271 263 256 251 246 248 251 250 249 249 249 248 243 243 246 247 244 244 245 244 242 240 240 241 242 242 241 240 239 240 240 239 238 238 239 240 240 239 238 238 239 239 239 240 240 241 242 244
300 303 303 304 302 297 298 302 304 302 301 303 305 306 308 309 310 307 304 303 304 306 303 297 294 295 298 300 300 301 303 303 297 294 296 292 281 271 260 249 244 242 245 247 247 250 252 250 248 244 245 249 248 245 244 245 244 242 240 240 240 241 243 243 242 241 240 240 240 240 240 240 240 240 240 238 238 240 240 239 240 240 241 242 243
302 306 305 306 306 303 301 300 298 297 297 300 302 304 306 308 309 304 300 300 302 304 302 297 293 294 296 292 293 301 305 302 295 291 294 294 282 269 262 251 242 238 242 247 243 239 240 244 248 248 248 250 249 246 245 246 245 243 241 240 240 240 241 242 243 242 241 240 240 241 240 240 239 239 239 239 239 240 240 240 241 242 241 242 243
302 298 293 294 294 292 292 292 292 293 295 296 297 299 302 303 305 301 295 294 296 299 296 290 288 288 290 287 289 296 293 293 300 298 295 299 293 279 269 263 253 243 241 242 240 238 237 238 241 243 245 249 250 248 248 248 246 245 244 241 240 240 239 240 242 242 242 240 240 240 240 239 238 238 238 238 239 240 240 242 244 244 243 243 243
287 281 279 279 278 280 283 285 287 288 288 289 289 292 298 300 299 296 292 291 293 296 295 287 283 282 283 283 283 283 282 290 300 297 292 299 302 294 282 276 269 258 249 245 246 250 244 235 238 243 248 250 247 246 247 247 245 246 246 244 242 241 239 238 240 241 241 240 240 239 239 240 238 237 237 238 239 241 242 244 245 245 245 245 245
278 279 280 277 275 280 281 283 285 283 284 286 285 288 298 300 293 288 292 298 297 295 298 297 291 287 286 284 282 276 278 290 296 290 286 287 290 292 292 289 281 271 262 255 254 255 244 234 239 248 249 246 247 249 245 242 244 247 248 246 244 242 240 238 238 240 241 240 240 239 239 240 239 238 237 238 240 242 244 246 246 246 247 247 247
277 278 280 281 281 285 286 290 293 291 291 294 294 296 301 298 291 290 297 301 299 297 301 304 298 295 297 294 289 282 283 290 291 288 288 288 286 283 281 283 282 276 268 263 264 263 254 244 247 250 243 237 243 248 244 240 243 245 246 246 244 243 240 239 239 238 240 240 240 240 239 239 239 239 239 239 241 243 246 248 248 248 248 248 248
282 279 281 286 287 290 293 297 303 303 300 300 301 303 304 301 300 306 306 307 310 304 302 304 300 300 301 295 293 293 294 295 292 289 285 285 289 287 281 280 280 274 269 270 270 270 267 259 252 250 244 239 240 243 244 243 243 243 245 245 242 243 242 241 241 239 239 241 241 241 240 240 240 240 240 240 242 243 245 248 249 249 249 248 248
286 282 283 285 286 292 297 300 305 305 301 301 302 303 309 313 314 316 314 313 315 308 305 309 306 303 297 291 294 298 298 296 296 294 286 283 287 290 289 286 280 272 272 279 276 269 268 267 261 254 250 248 244 241 245 245 242 240 243 244 242 242 244 243 241 240 241 241 241 241 241 241 241 242 242 243 243 244 245 247 248 248 248 246 247
288 284 287 292 292 292 295 297 298 296 297 303 304 302 307 310 307 308 307 307 312 312 313 317 313 306 302 298 302 305 302 300 300 298 294 289 289 292 293 289 283 277 276 282 281 272 270 271 268 262 256 255 250 246 246 242 238 238 239 243 243 241 244 246 242 241 243 243 241 241 241 241 242 243 244 245 245 246 246 247 247 246 246 245 247
300 298 302 307 301 300 306 307 304 302 303 304 303 303 304 304 303 305 306 308 313 313 313 317 315 312 315 313 310 310 307 305 305 301 298 296 295 296 295 291 286 283 280 282 282 280 280 276 271 266 261 258 255 253 251 243 237 240 240 238 239 240 243 248 248 247 246 245 243 241 241 241 241 242 244 246 246 247 247 247 247 246 245 245 247
308 311 312 309 301 305 315 317 315 315 316 314 312 312 313 313 313 312 313 313 312 310 309 313 315 316 321 320 315 314 311 310 309 305 302 301 300 297 296 296 293 288 287 289 287 285 285 278 271 269 265 260 257 256 255 247 239 242 241 238 240 243 245 246 248 249 249 248 246 242 240 240 242 242 242 244 245 246 247 247 247 246 245 245 247
304 302 296 299 306 312 320 322 320 322 325 327 326 326 327 327 326 324 322 318 313 311 313 316 321 325 329 328 323 321 320 319 317 313 311 308 303 299 297 297 294 290 291 291 290 290 289 281 273 271 269 265 262 259 257 250 242 240 240 240 244 245 245 245 245 247 249 249 247 244 241 239 240 242 243 244 245 246 247 247 247 247 245 246 247
287 281 288 304 315 317 319 320 321 323 325 327 328 329 330 330 330 329 325 324 319 314 317 323 328 331 333 332 328 327 329 328 323 319 318 315 312 309 306 300 293 291 291 289 287 287 288 286 279 273 269 268 266 262 259 254 248 244 239 240 243 241 240 244 249 250 250 248 245 244 242 240 240 241 242 244 245 246 247 248 248 247 246 246 247
270 279 299 311 310 309 311 316 318 320 323 325 326 328 328 327 329 329 326 323 318 317 320 323 327 332 334 332 329 331 333 331 327 324 323 322 320 318 314 306 297 293 291 289 286 282 281 283 281 276 272 270 269 265 261 257 253 248 244 246 249 248 241 243 249 250 246 246 246 242 241 241 241 241 242 243 244 245 246 247 248 247 246 246 246
286 302 308 302 300 304 310 315 317 320 324 324 323 325 327 326 327 328 327 322 312 313 318 322 330 333 332 331 329 331 333 331 329 328 327 326 324 321 317 310 302 295 293 290 284 278 277 278 279 279 276 273 273 273 267 263 257 250 248 252 256 257 254 251 253 251 244 242 244 242 239 239 241 242 242 243 244 245 246 246 246 246 245 245 246
305 304 296 292 297 303 308 311 315 319 322 323 323 322 321 322 323 322 319 314 310 315 321 326 333 331 326 327 324 325 331 332 333 332 329 326 323 320 315 312 306 296 292 289 284 279 278 277 277 278 279 276 276 278 274 269 264 255 253 255 257 258 258 257 258 258 252 245 241 241 239 237 239 240 240 241 242 244 245 246 245 245 244 243 244
293 291 289 290 296 299 301 305 310 314 316 317 315 314 313 315 320 318 308 302 306 317 323 326 329 325 321 322 322 325 331 335 338 337 333 327 320 313 308 307 307 300 293 289 285 283 282 280 277 277 279 279 278 278 276 272 267 260 256 256 257 256 255 255 259 263 263 254 244 240 238 238 239 239 238 239 241 243 245 246 245 244 243 242 242
285 290 289 289 291 291 293 299 304 306 306 303 301 302 304 306 311 310 300 295 300 310 318 323 325 324 321 320 323 329 332 335 339 339 338 335 326 316 307 302 301 301 300 294 285 282 281 280 281 281 281 280 279 278 275 270 264 260 257 254 253 253 252 253 258 262 263 259 251 243 240 240 242 241 240 239 241 243 244 245 245 244 243 242 241
277 281 284 286 289 292 294 294 294 296 295 295 296 296 296 299 302 299 292 291 295 304 314 319 321 321 320 320 323 330 333 336 341 342 342 343 339 331 320 309 302 298 299 300 292 287 285 281 281 285 286 282 278 277 274 269 263 259 258 254 250 251 251 252 254 258 259 259 255 249 244 243 242 241 241 240 240 242 243 244 244 243 242 240 239
283 285 287 288 290 293 295 292 290 290 290 293 297 297 295 294 294 294 291 289 293 302 307 310 316 318 317 318 322 328 333 338 345 349 347 344 341 338 333 325 316 306 298 297 298 297 295 290 282 284 290 285 276 275 275 272 264 256 257 258 254 252 252 250 250 254 257 257 254 250 246 243 241 240 240 239 239 241 243 243 243 243 241 238 238
289 294 295 288 282 283 287 288 289 289 290 293 294 292 292 290 290 293 292 288 292 302 305 304 310 315 314 315 319 324 332 341 349 354 351 346 342 337 333 329 325 319 308 297 295 298 300 298 287 282 288 284 273 273 275 274 267 257 255 258 256 252 250 249 250 252 255 255 252 248 243 240 240 239 238 239 240 241 242 243 242 241 239 237 237
284 288 290 286 284 289 293 294 294 296 299 299 296 288 283 284 288 292 293 289 291 300 305 303 303 308 312 313 316 322 331 342 350 353 353 351 347 340 333 329 328 326 321 309 297 294 299 301 292 282 282 279 270 271 275 275 271 262 257 257 256 253 252 251 250 251 253 253 248 243 239 237 237 237 236 238 240 241 241 241 240 239 237 236 237
285 291 295 297 297 299 300 299 298 297 296 297 298 293 283 282 288 291 290 286 287 298 306 305 300 303 310 311 311 317 326 336 344 348 351 353 351 344 335 330 330 329 327 320 306 292 292 298 294 283 279 278 269 267 272 273 270 264 259 257 256 255 253 251 248 248 250 247 241 238 236 235 235 234 235 237 239 239 239 239 238 237 236 236 236
296 298 296 292 291 294 295 293 294 295 295 296 297 296 291 289 292 294 291 285 283 293 305 306 300 298 304 308 307 311 319 329 337 343 349 354 354 349 339 333 334 332 326 322 314 300 290 291 293 286 280 279 271 264 266 270 267 263 257 255 256 257 255 250 244 242 243 240 236 234 231 231 233 233 233 234 236 237 236 237 238 238 237 238 238
286 287 286 287 291 295 294 291 292 291 291 292 293 294 294 292 293 296 296 291 286 292 304 307 299 292 295 300 304 306 311 322 331 338 347 353 355 353 348 343 343 338 331 325 319 311 299 289 289 290 284 279 271 263 262 264 264 262 257 256 258 256 250 245 238 233 234 235 235 231 225 225 229 231 230 231 233 234 235 236 238 239 239 239 239
280 282 288 293 292 291 291 291 290 286 288 293 294 294 294 293 294 295 294 291 287 293 305 306 297 290 290 292 297 300 299 309 322 328 338 347 350 350 349 348 347 344 340 336 328 319 311 298 290 292 291 282 272 265 262 263 262 260 257 256 256 251 243 241 238 233 233 236 236 231 225 226 230 231 230 229 230 233 234 236 237 238 238 236 233
284 282 286 287 284 284 287 287 287 291 300 302 295 295 301 306 306 303 301 300 295 296 302 302 294 290 290 287 286 288 287 295 310 319 329 338 342 344 344 344 346 344 341 339 335 326 319 311 297 291 292 288 278 269 263 260 258 255 253 252 251 248 241 238 239 237 237 239 237 232 228 229 231 231 230 229 231 234 235 236 236 236 234 231 228
283 282 279 280 284 290 295 294 295 301 307 302 294 299 315 322 318 313 313 310 303 297 298 299 295 292 289 283 279 281 282 287 304 319 327 333 335 339 340 340 342 343 339 336 334 329 320 315 306 293 289 287 283 276 266 257 253 254 255 253 251 248 242 239 239 239 239 239 236 232 231 230 230 230 230 229 230 234 234 233 232 231 230 228 226
283 282 277 283 290 294 296 297 299 298 294 296 302 307 314 322 325 324 318 311 306 300 299 300 298 294 289 285 282 281 279 282 304 326 331 332 333 333 335 338 340 341 337 333 331 329 321 314 308 300 292 286 281 277 271 263 257 254 252 250 248 246 240 237 237 238 239 238 234 233 232 231 231 232 231 228 228 230 230 228 227 227 226 225 223
284 289 290 290 287 286 288 289 291 288 287 296 308 311 308 315 323 323 319 315 314 312 311 309 302 294 291 290 286 280 276 276 297 328 334 332 331 330 331 336 340 341 338 331 327 326 322 314 307 301 294 287 280 274 271 270 264 254 247 244 243 242 239 237 235 233 234 235 234 234 233 231 232 234 231 227 225 226 226 226 225 225 224 223 221
288 292 288 282 279 286 293 291 284 283 290 301 309 310 308 308 308 309 312 315 316 318 321 319 314 307 300 296 291 286 286 286 291 316 331 329 328 329 329 334 339 342 341 334 325 321 319 314 307 301 294 289 284 275 267 266 266 258 251 244 241 244 244 240 235 233 232 230 229 232 234 231 229 230 228 226 225 226 228 228 226 224 224 224 222
284 284 280 278 280 287 291 286 281 284 294 303 303 302 301 300 300 302 306 310 313 317 319 319 323 325 315 304 301 300 302 303 304 314 322 320 324 328 329 334 340 343 343 339 332 323 316 311 305 299 293 288 283 276 265 258 259 261 258 252 247 247 246 239 232 233 233 227 224 228 231 230 228 227 226 226 226 228 229 230 228 225 225 225 224
278 279 278 275 278 285 283 279 284 292 297 299 300 300 298 299 302 302 302 305 308 313 314 313 320 326 320 312 313 314 312 312 316 321 321 319 322 326 329 337 343 345 343 342 338 330 319 310 303 297 292 285 277 272 264 255 252 253 254 255 252 249 246 239 231 228 226 223 223 224 225 227 227 227 227 227 227 228 230 230 229 227 225 225 225
274 276 277 276 280 286 281 280 289 295 295 297 301 301 300 305 308 302 300 303 304 308 311 313 319 321 318 319 323 323 321 319 319 322 324 324 324 326 332 340 345 346 343 341 339 333 324 316 308 299 290 281 271 264 258 252 249 247 247 249 251 249 245 238 231 226 222 223 221 217 221 225 225 226 229 230 229 229 230 229 230 230 227 225 225
270 273 275 275 281 284 281 286 294 293 292 296 299 299 302 310 311 303 300 299 299 305 310 313 319 319 318 323 325 325 328 328 324 324 325 325 326 330 338 344 347 346 342 339 336 334 331 327 320 308 291 276 264 257 251 244 239 239 242 245 247 247 241 230 224 221 220 225 221 212 218 227 226 227 232 232 229 229 230 230 231 233 231 228 228
269 272 272 274 281 279 277 289 295 291 292 297 297 296 299 308 313 309 304 297 295 301 306 309 318 326 328 325 321 323 331 330 327 328 327 328 332 338 345 349 350 347 341 338 337 339 341 339 333 320 295 271 259 252 247 239 230 226 233 240 239 239 234 223 220 219 219 225 227 223 231 240 236 232 235 233 228 227 228 230 232 234 234 232 232
272 271 270 274 280 275 272 284 291 290 295 299 295 291 295 307 317 313 306 301 297 300 305 310 321 332 335 331 326 327 328 324 324 329 329 330 337 346 352 355 354 347 340 340 343 345 347 347 342 331 301 273 258 247 242 238 227 219 223 228 228 228 228 222 218 219 221 224 225 225 237 245 240 233 235 234 226 223 225 228 230 231 230 228 230
272 276 277 275 278 279 278 283 289 292 295 293 289 293 301 312 318 313 306 300 295 297 304 312 320 324 325 329 329 324 318 319 326 329 328 332 342 354 0 1 357 348 343 347 350 349 348 350 350 345 327 294 269 248 237 235 227 218 215 217 217 219 223 222 219 219 224 228 226 226 234 240 235 228 229 229 224 222 224 226 227 227 225 226 229
Height
1578 1578 1578 1579 1580 1581 1581 1581 1581 1579 1577 1576 1575 1575 1575 1575 1575 1575 1576 1577 1577 1575 1574 1574 1574 1573 1573 1573 1575 1578 1579 1579 1579 1579 1578 1578 1579 1580 1579 1578 1579 1578 1578 1577 1577 1578 1579 1580 1582 1583 1583 1583 1582 1581 1581 1580 1580 1580 1581 1582 1583 1585 1586 1587 1588 1589 1590 1590 1591 1592 1592 1593 1594 1594 1595 1595 1596 1596 1597 1597 1598 1598 1598 1599 1599
1575 1576 1577 1577 1578 1580 1580 1580 1579 1578 1577 1576 1575 1574 1574 1574 1574 1574 1574 1575 1576 1575 1573 1572 1573 1572 1572 1572 1573 1575 1576 1577 1577 1576 1576 1576 1576 1577 1576 1576 1576 1576 1576 1576 1576 1576 1577 1578 1579 1581 1581 1582 1581 1581 1580 1580 1579 1579 1580 1580 1582 1583 1584 1585 1586 1587 1588 1589 1590 1590 1591 1592 1592 1593 1594 1594 1595 1595 1596 1596 1597 1597 1597 1598 1598
1574 1575 1575 1575 1576 1577 1578 1578 1578 1578 1577 1576 1575 1574 1573 1573 1573 1573 1573 1573 1574 1574 1573 1571 1571 1570 1570 1570 1571 1572 1573 1574 1575 1575 1574 1574 1573 1573 1574 1573 1573 1573 1574 1574 1574 1575 1575 1575 1576 1578 1579 1579 1580 1579 1579 1579 1578 1578 1579 1579 1580 1581 1582 1583 1584 1585 1586 1587 1588 1589 1590 1590 1591 1592 1592 1593 1593 1594 1595 1595 1595 1596 1596 1597 1597
1573 1573 1574 1574 1574 1575 1576 1577 1577 1577 1576 1576 1575 1574 1573 1572 1571 1571 1571 1571 1571 1571 1570 1569 1569 1568 1568 1568 1569 1570 1571 1572 1572 1573 1573 1572 1571 1571 1572 1572 1572 1572 1572 1572 1572 1573 1573 1573 1574 1575 1576 1577 1577 1577 1577 1577 1577 1577 1577 1578 1578 1579 1580 1581 1582 1583 1584 1585 1586 1587 1588 1589 1590 1590 1591 1591 1592 1593 1593 1594 1594 1595 1595 1595 1596
1571 1572 1572 1572 1572 1573 1574 1574 1575 1575 1575 1575 1574 1573 1572 1571 1570 1569 1569 1569 1568 1568 1567 1567 1566 1566 1566 1566 1566 1567 1568 1569 1570 1570 1570 1570 1569 1568 1569 1570 1570 1570 1570 1570 1570 1570 1571 1571 1572 1573 1573 1574 1575 1575 1575 1576 1576 1576 1576 1576 1577 1577 1578 1579 1580 1581 1582 1583 1584 1585 1586 1587 1588 1589 1590 1590 1591 1591 1592 1592 1593 1593 1594 1594 1595
1569 1569 1569 1570 1570 1570 1571 1571 1572 1572 1572 1572 1572 1572 1571 1570 1569 1568 1567 1566 1565 1565 1564 1564 1564 1564 1563 1564 1564 1564 1565 1566 1567 1568 1568 1568 1567 1566 1566 1567 1567 1568 1568 1567 1567 1567 1568 1569 1570 1570 1571 1571 1572 1572 1573 1573 1574 1575 1575 1575 1575 1576 1576 1577 1578 1579 1580 1581 1582 1583 1584 1585 1586 1587 1588 1589 1589 1590 1590 1591 1591 1592 1592 1593 1593
1567 1567 1567 1567 1568 1568 1568 1568 1568 1569 1570 1569 1569 1569 1569 1569 1567 1566 1565 1564 1563 1562 1562 1561 1561 1561 1561 1561 1562 1562 1562 1562 1563 1564 1565 1566 1565 1564 1564 1564 1565 1565 1566 1565 1565 1565 1566 1566 1567 1568 1569 1569 1570 1570 1570 1571 1572 1573 1573 1574 1574 1574 1575 1575 1576 1577 1578 1579 1580 1581 1582 1583 1584 1585 1586 1587 1587 1588 1589 1589 1590 1590 1591 1591 1592
1566 1566 1566 1566 1566 1566 1567 1566 1566 1567 1568 1567 1568 1568 1568 1567 1566 1564 1562 1561 1561 1560 1559 1559 1559 1559 1559 1558 1559 1559 1560 1560 1561 1561 1562 1563 1563 1562 1562 1562 1562 1563 1563 1563 1563 1563 1564 1564 1565 1565 1566 1567 1567 1568 1568 1568 1569 1570 1571 1572 1573 1573 1573 1573 1574 1575 1576 1577 1578 1579 1580 1581 1582 1583 1584 1584 1585 1586 1587 1587 1588 1588 1589 1590 1590
1566 1565 1566 1566 1566 1566 1566 1566 1566 1566 1566 1566 1567 1567 1567 1566 1565 1563 1561 1560 1559 1558 1557 1557 1557 1556 1556 1556 1556 1557 1557 1558 1559 1559 1560 1559 1559 1559 1559 1559 1559 1560 1561 1561 1561 1561 1562 1562 1562 1562 1563 1564 1565 1566 1566 1566 1567 1568 1569 1570 1571 1571 1572 1572 1572 1573 1574 1575 1575 1576 1578 1579 1580 1581 1581 1582 1583 1584 1585 1586 1586 1587 1587 1588 1588
1566 1565 1564 1564 1564 1564 1564 1565 1565 1565 1565 1566 1566 1566 1565 1564 1563 1562 1560 1559 1558 1557 1556 1556 1555 1554 1554 1553 1553 1554 1555 1556 1556 1557 1557 1557 1556 1556 1557 1557 1557 1558 1559 1559 1559 1558 1559 1560 1559 1560 1560 1561 1562 1563 1563 1564 1564 1565 1567 1568 1569 1570 1570 1570 1571 1571 1572 1572 1573 1574 1575 1576 1577 1578 1579 1580 1581 1582 1583 1584 1584 1585 1585 1586 1587
1564 1563 1562 1562 1561 1561 1562 1563 1564 1564 1565 1564 1564 1564 1563 1562 1561 1560 1559 1558 1557 1556 1555 1554 1553 1552 1551 1551 1551 1552 1552 1553 1554 1554 1554 1554 1553 1554 1554 1554 1554 1555 1555 1556 1556 1556 1556 1556 1557 1557 1558 1559 1559 1560 1561 1561 1561 1562 1564 1565 1567 1568 1568 1568 1569 1569 1570 1570 1571 1572 1573 1574 1575 1576 1577 1578 1579 1580 1581 1581 1582 1583 1584 1584 1585
1562 1561 1561 1561 1561 1561 1562 1562 1563 1563 1563 1562 1561 1561 1560 1559 1558 1557 1557 1556 1555 1554 1554 1552 1551 1550 1549 1549 1549 1549 1549 1550 1550 1550 1550 1550 1550 1550 1551 1552 1552 1552 1552 1553 1553 1553 1552 1553 1554 1555 1555 1556 1557 1557 1558 1558 1559 1559 1560 1562 1563 1565 1566 1566 1567 1567 1568 1568 1569 1570 1571 1572 1573 1574 1575 1576 1577 1578 1579 1579 1580 1581 1582 1582 1583
1562 1562 1561 1561 1561 1561 1562 1562 1561 1561 1560 1559 1559 1558 1558 1557 1556 1555 1554 1553 1553 1552 1552 1551 1550 1548 1547 1547 1546 1546 1546 1546 1545 1545 1546 1546 1547 1547 1548 1549 1549 1549 1549 1549 1549 1549 1550 1550 1552 1553 1553 1554 1555 1555 1555 1555 1556 1556 1557 1558 1560 1562 1563 1564 1565 1565 1565 1566 1567 1568 1569 1570 1571 1572 1573 1574 1575 1576 1577 1577 1578 1579 1579 1580 1581
1561 1561 1561 1560 1560 1560 1560 1560 1560 1559 1558 1558 1558 1558 1557 1556 1555 1553 1552 1551 1550 1550 1550 1549 1548 1547 1547 1545 1544 1543 1543 1543 1542 1541 1541 1542 1543 1544 1545 1546 1546 1547 1547 1547 1547 1547 1548 1547 1549 1551 1551 1552 1553 1552 1553 1552 1552 1553 1553 1554 1556 1558 1560 1561 1562 1562 1563 1564 1564 1565 1566 1567 1568 1569 1571 1572 1573 1574 1575 1575 1576 1577 1577 1578 1579
1560 1559 1559 1559 1558 1559 1559 1559 1559 1558 1558 1558 1558 1558 1557 1555 1553 1552 1550 1549 1548 1547 1547 1547 1547 1547 1546 1545 1544 1542 1541 1541 1540 1538 1538 1539 1540 1541 1542 1542 1543 1544 1544 1544 1545 1545 1546 1546 1546 1547 1548 1549 1549 1549 1550 1550 1550 1550 1551 1551 1552 1554 1556 1558 1559 1560 1560 1561 1562 1562 1563 1564 1566 1567 1568 1569 1570 1571 1572 1573 1574 1574 1575 1575 1576
1560 1559 1558 1558 1558 1558 1558 1558 1558 1557 1557 1557 1557 1556 1555 1554 1552 1550 1549 1548 1546 1546 1546 1546 1546 1546 1545 1544 1544 1543 1541 1540 1538 1537 1537 1537 1537 1539 1539 1539 1540 1541 1541 1541 1541 1541 1543 1544 1544 1545 1545 1545 1545 1546 1546 1547 1547 1548 1548 1549 1550 1551 1552 1554 1556 1557 1557 1558 1559 1560 1561 1562 1563 1564 1565 1566 1568 1569 1570 1571 1572 1572 1573 1573 1574
1560 1560 1559 1559 1559 1558 1558 1557 1557 1556 1556 1556 1555 1554 1553 1552 1550 1549 1548 1547 1546 1545 1545 1545 1545 1545 1544 1543 1543 1542 1540 1540 1538 1535 1535 1536 1535 1536 1537 1537 1537 1537 1537 1538 1538 1538 1540 1542 1542 1543 1543 1542 1542 1543 1543 1544 1544 1545 1546 1547 1547 1548 1549 1551 1552 1554 1554 1555 1556 1557 1558 1559 1560 1561 1563 1564 1565 1566 1567 1568 1569 1570 1571 1571 1572
1560 1560 1559 1558 1558 1557 1557 1556 1555 1555 1555 1554 1553 1552 1551 1550 1549 1548 1547 1546 1545 1544 1543 1544 1543 1543 1543 1543 1542 1541 1539 1538 1537 1534 1532 1534 1535 1535 1534 1533 1534 1534 1534 1534 1535 1537 1539 1540 1540 1540 1540 1540 1540 1541 1541 1541 1541 1542 1543 1544 1546 1547 1547 1548 1549 1550 1552 1552 1553 1554 1555 1556 1557 1558 1560 1561 1562 1563 1564 1565 1567 1568 1568 1569 1569
1559 1559 1558 1558 1557 1557 1556 1555 1554 1554 1554 1553 1552 1550 1550 1549 1547 1546 1544 1544 1544 1543 1542 1542 1542 1541 1542 1542 1541 1540 1538 1537 1536 1534 1531 1531 1532 1533 1532 1531 1531 1531 1532 1532 1532 1535 1538 1538 1536 1536 1536 1537 1538 1538 1538 1538 1538 1539 1540 1541 1543 1544 1546 1546 1547 1548 1549 1550 1551 1551 1552 1553 1554 1555 1556 1558 1559 1560 1561 1563 1564 1565 1566 1566 1567
1559 1558 1558 1557 1556 1555 1555 1554 1553 1553 1552 1551 1550 1549 1548 1547 1546 1545 1543 1543 1543 1542 1542 1541 1541 1540 1540 1540 1540 1539 1538 1537 1536 1534 1532 1529 1528 1530 1531 1531 1530 1529 1530 1531 1531 1532 1533 1533 1533 1533 1533 1534 1535 1536 1536 1536 1536 1536 1537 1539 1540 1541 1543 1544 1545 1546 1546 1547 1548 1548 1549 1550 1551 1552 1553 1554 1555 1557 1558 1559 1560 1562 1563 1564 1564
1557 1557 1557 1556 1555 1554 1554 1553 1552 1552 1551 1550 1549 1548 1547 1546 1545 1544 1543 1543 1542 1542 1541 1540 1540 1539 1539 1539 1538 1538 1537 1536 1535 1533 1532 1529 1526 1526 1528 1529 1529 1528 1528 1528 1528 1529 1528 1528 1530 1531 1532 1532 1532 1532 1533 1533 1532 1532 1534 1535 1536 1538 1539 1541 1542 1543 1544 1544 1545 1546 1546 1547 1548 1548 1549 1550 1552 1553 1554 1556 1557 1558 1560 1561 1562
1556 1556 1555 1555 1554 1553 1553 1552 1551 1550 1549 1549 1548 1547 1546 1545 1544 1543 1542 1542 1541 1541 1540 1539 1539 1539 1538 1537 1537 1536 1535 1534 1533 1532 1531 1529 1526 1525 1525 1526 1526 1525 1526 1526 1526 1525 1525 1525 1526 1527 1529 1529 1529 1528 1528 1528 1528 1529 1530 1532 1533 1534 1536 1537 1539 1540 1541 1542 1542 1543 1543 1544 1544 1545 1546 1547 1548 1549 1551 1552 1554 1555 1556 1557 1559
1555 1555 1554 1554 1553 1552 1551 1551 1550 1549 1548 1547 1546 1545 1545 1544 1543 1542 1541 1541 1540 1540 1539 1539 1538 1538 1537 1536 1535 1535 1533 1532 1532 1531 1529 1528 1526 1523 1522 1523 1523 1521 1522 1523 1522 1522 1522 1521 1521 1522 1524 1525 1525 1525 1524 1524 1525 1526 1526 1527 1529 1531 1532 1533 1534 1536 1538 1539 1540 1540 1541 1541 1541 1542 1543 1543 1544 1545 1547 1548 1550 1551 1552 1554 1555
1554 1554 1553 1553 1552 1551 1550 1549 1549 1548 1547 1546 1545 1544 1544 1543 1542 1542 1541 1540 1540 1539 1539 1538 1538 1537 1536 1535 1534 1533 1532 1531 1530 1529 1528 1527 1526 1523 1521 1521 1520 1517 1517 1518 1517 1517 1518 1517 1517 1517 1519 1520 1520 1521 1522 1521 1521 1521 1522 1523 1526 1528 1529 1529 1530 1531 1533 1535 1537 1537 1538 1538 1538 1539 1539 1540 1541 1541 1543 1544 1546 1547 1549 1550 1551
1554 1553 1552 1551 1550 1549 1549 1548 1547 1547 1546 1545 1544 1544 1543 1542 1542 1541 1540 1540 1540 1539 1539 1538 1537 1536 1535 1534 1533 1532 1531 1530 1529 1528 1527 1526 1525 1523 1521 1520 1518 1514 1513 1514 1512 1511 1512 1513 1514 1513 1514 1515 1515 1517 1518 1517 1517 1517 1517 1520 1522 1524 1524 1525 1526 1527 1529 1531 1532 1533 1534 1534 1535 1535 1536 1537 1537 1538 1539 1540 1542 1543 1545 1546 1547
1552 1552 1551 1550 1549 1548 1548 1547 1546 1546 1545 1544 1544 1543 1542 1541 1541 1540 1540 1540 1539 1539 1538 1537 1536 1535 1533 1532 1531 1531 1530 1529 1528 1527 1525 1524 1524 1522 1520 1519 1516 1513 1510 1510 1509 1507 1506 1507 1509 1510 1510 1510 1511 1511 1512 1513 1514 1514 1515 1517 1517 1517 1518 1521 1522 1522 1524 1526 1528 1529 1530 1531 1531 1532 1533 1533 1534 1535 1535 1536 1537 1539 1540 1542 1543
1551 1550 1549 1549 1548 1548 1547 1546 1545 1545 1544 1543 1543 1542 1541 1540 1540 1539 1539 1539 1538 1538 1537 1536 1535 1534 1532 1531 1530 1530 1529 1527 1526 1525 1523 1522 1521 1521 1519 1517 1514 1511 1508 1507 1506 1504 1502 1503 1504 1505 1507 1507 1507 1508 1507 1508 1510 1511 1513 1514 1514 1514 1514 1515 1518 1518 1519 1522 1524 1525 1526 1527 1527 1528 1529 1530 1530 1531 1532 1532 1533 1535 1536 1537 1539
1549 1549 1549 1548 1547 1546 1546 1545 1544 1544 1543 1542 1542 1541 1540 1539 1538 1538 1538 1538 1537 1537 1536 1535 1534 1533 1531 1530 1529 1528 1527 1526 1524 1522 1521 1519 1518 1518 1517 1516 1513 1509 1505 1504 1502 1500 1499 1499 1499 1499 1501 1503 1503 1504 1504 1504 1505 1506 1507 1509 1510 1512 1513 1513 1513 1514 1515 1518 1520 1521 1522 1522 1523 1524 1525 1526 1527 1527 1528 1529 1530 1531 1532 1533 1535
1548 1548 1548 1547 1546 1545 1544 1544 1543 1542 1542 1541 1540 1539 1539 1538 1537 1537 1536 1536 1536 1535 1535 1534 1533 1532 1531 1529 1528 1527 1526 1525 1523 1521 1519 1517 1515 1514 1513 1512 1512 1508 1504 1501 1498 1497 1496 1496 1495 1494 1495 1498 1499 1501 1501 1499 1500 1501 1501 1502 1505 1507 1509 1510 1510 1510 1512 1514 1516 1518 1519 1519 1519 1520 1521 1522 1523 1524 1525 1525 1526 1527 1528 1529 1531
1547 1547 1546 1546 1545 1544 1543 1543 1542 1541 1541 1540 1539 1538 1537 1537 1536 1536 1536 1535 1534 1534 1533 1532 1531 1531 1529 1529 1528 1526 1525 1523 1521 1519 1517 1515 1512 1511 1509 1508 1508 1506 1503 1500 1494 1493 1493 1492 1491 1490 1490 1492 1494 1495 1496 1495 1495 1495 1496 1498 1500 1501 1503 1505 1506 1506 1508 1510 1511 1513 1515 1516 1515 1516 1517 1518 1519 1520 1521 1522 1522 1523 1524 1525 1527
1545 1545 1545 1544 1544 1543 1542 1542 1541 1540 1539 1539 1538 1537 1536 1536 1535 1535 1535 1534 1533 1532 1532 1530 1529 1528 1527 1526 1526 1524 1523 1522 1519 1517 1515 1513 1510 1508 1506 1504 1503 1502 1501 1498 1491 1488 1490 1488 1486 1486 1486 1487 1488 1489 1489 1490 1490 1490 1491 1493 1495 1496 1497 1499 1501 1502 1503 1506 1507 1508 1511 1512 1512 1512 1513 1514 1515 1516 1517 1518 1519 1519 1520 1521 1522
1543 1543 1542 1542 1542 1542 1541 1540 1539 1539 1538 1537 1537 1536 1535 1535 1534 1533 1533 1532 1532 1531 1530 1529 1527 1526 1525 1524 1523 1522 1521 1519 1517 1515 1512 1510 1507 1505 1503 1500 1499 1497 1496 1495 1489 1483 1484 1485 1482 1480 1480 1481 1482 1483 1483 1484 1484 1485 1486 1488 1490 1492 1493 1494 1496 1498 1499 1500 1502 1504 1505 1508 1509 1509 1509 1510 1511 1512 1513 1514 1515 1515 1516 1517 1518
1541 1541 1541 1540 1540 1540 1539 1539 1538 1537 1537 1536 1536 1535 1534 1534 1533 1532 1531 1531 1530 1529 1528 1526 1525 1523 1522 1521 1520 1519 1518 1516 1514 1512 1510 1507 1505 1502 1500 1497 1495 1493 1492 1491 1487 1480 1478 1480 1478 1476 1475 1476 1476 1477 1478 1478 1479 1480 1481 1483 1485 1487 1488 1489 1491 1493 1494 1495 1497 1498 1500 1502 1504 1505 1505 1506 1507 1508 1509 1510 1511 1511 1512 1514 1515
1540 1539 1539 1539 1539 1538 1538 1537 1536 1536 1535 1535 1534 1533 1533 1532 1531 1531 1530 1529 1528 1528 1527 1525 1522 1521 1520 1518 1518 1517 1515 1514 1512 1510 1507 1504 1502 1499 1497 1495 1491 1490 1488 1487 1484 1479 1474 1474 1474 1472 1471 1471 1471 1471 1473 1473 1474 1475 1476 1478 1481 1482 1483 1485 1485 1486 1488 1490 1491 1493 1495 1497 1499 1500 1501 1502 1502 1503 1504 1506 1507 1508 1509 1510 1511
1539 1539 1538 1538 1537 1537 1536 1536 1535 1534 1533 1532 1532 1531 1530 1529 1529 1528 1528 1527 1527 1526 1525 1523 1521 1519 1517 1516 1515 1514 1513 1511 1509 1508 1505 1501 1499 1496 1494 1492 1489 1486 1485 1483 1481 1477 1472 1470 1469 1468 1468 1468 1467 1467 1468 1469 1470 1470 1472 1474 1476 1477 1479 1480 1480 1481 1483 1485 1486 1488 1490 1492 1494 1496 1497 1497 1498 1499 1500 1501 1503 1504 1505 1506 1508
1538 1537 1537 1536 1536 1535 1535 1534 1534 1533 1532 1531 1530 1529 1528 1527 1527 1526 1525 1525 1524 1523 1522 1521 1519 1517 1515 1514 1513 1512 1511 1509 1508 1506 1503 1500 1496 1493 1491 1489 1487 1483 1481 1479 1477 1474 1470 1466 1464 1464 1464 1464 1464 1464 1464 1465 1465 1466 1467 1468 1470 1472 1473 1474 1475 1476 1478 1480 1481 1483 1485 1487 1489 1491 1492 1493 1493 1494 1496 1497 1499 1500 1502 1503 1504
1536 1535 1535 1535 1535 1534 1534 1533 1533 1532 1530 1529 1528 1527 1526 1526 1525 1524 1523 1522 1521 1520 1520 1519 1517 1515 1513 1512 1512 1511 1509 1508 1507 1504 1502 1498 1495 1492 1489 1487 1484 1481 1478 1475 1473 1470 1467 1463 1461 1460 1460 1459 1459 1460 1460 1461 1461 1461 1462 1464 1465 1466 1467 1468 1470 1471 1474 1475 1476 1478 1480 1482 1484 1486 1487 1488 1489 1490 1491 1493 1495 1497 1498 1500 1501
1534 1534 1534 1533 1533 1532 1532 1532 1531 1530 1529 1527 1526 1524 1523 1523 1522 1522 1521 1520 1519 1519 1518 1517 1515 1514 1512 1511 1510 1509 1508 1507 1506 1503 1501 1497 1494 1491 1488 1485 1482 1479 1476 1472 1469 1466 1463 1461 1458 1456 1455 1455 1455 1455 1456 1457 1457 1457 1458 1460 1460 1461 1462 1463 1464 1466 1469 1470 1472 1473 1475 1477 1479 1481 1482 1483 1484 1485 1487 1488 1491 1492 1494 1496 1497
1532 1532 1532 1532 1531 1531 1530 1529 1529 1528 1527 1525 1524 1522 1520 1520 1520 1520 1519 1519 1518 1517 1516 1515 1514 1512 1511 1509 1508 1507 1506 1505 1503 1501 1498 1495 1493 1490 1487 1484 1481 1477 1473 1469 1465 1462 1459 1457 1455 1454 1452 1451 1450 1451 1451 1453 1453 1453 1455 1456 1456 1457 1458 1458 1459 1461 1463 1465 1467 1469 1471 1473 1475 1477 1478 1479 1479 1480 1482 1484 1486 1488 1490 1491 1493
1530 1530 1530 1530 1529 1528 1528 1527 1526 1525 1524 1523 1522 1521 1519 1519 1519 1518 1517 1517 1516 1515 1514 1513 1512 1511 1509 1508 1506 1504 1503 1501 1500 1498 1495 1493 1490 1488 1485 1483 1479 1475 1471 1467 1463 1460 1456 1453 1452 1450 1449 1447 1446 1446 1448 1448 1448 1448 1450 1452 1452 1453 1454 1454 1455 1456 1458 1460 1462 1465 1467 1469 1471 1472 1474 1475 1475 1476 1478 1480 1482 1484 1486 1487 1489
1528 1528 1528 1528 1527 1526 1525 1524 1524 1524 1523 1521 1520 1520 1519 1518 1518 1516 1515 1515 1514 1513 1512 1510 1509 1508 1507 1505 1503 1501 1500 1498 1497 1495 1492 1489 1487 1484 1483 1480 1477 1473 1469 1465 1461 1457 1454 1451 1448 1447 1445 1443 1442 1442 1443 1443 1443 1443 1445 1447 1447 1448 1450 1450 1451 1452 1453 1455 1458 1460 1462 1464 1465 1467 1469 1470 1471 1472 1474 1476 1478 1480 1481 1483 1485
1525 1525 1525 1525 1524 1524 1523 1523 1523 1522 1520 1518 1518 1518 1517 1516 1516 1515 1514 1513 1512 1511 1510 1507 1506 1505 1503 1502 1500 1498 1497 1496 1494 1492 1488 1486 1484 1482 1480 1478 1475 1471 1467 1463 1459 1455 1451 1447 1445 1444 1442 1439 1438 1439 1438 1438 1439 1440 1442 1442 1443 1444 1446 1446 1447 1449 1450 1451 1453 1454 1456 1459 1461 1462 1464 1465 1466 1468 1470 1471 1474 1476 1478 1480 1481
1524 1524 1524 1523 1522 1521 1521 1521 1521 1519 1518 1517 1516 1515 1515 1514 1514 1513 1512 1511 1510 1509 1507 1505 1504 1502 1500 1499 1497 1494 1494 1493 1492 1490 1487 1484 1482 1480 1478 1475 1473 1469 1465 1460 1456 1452 1449 1445 1441 1440 1438 1435 1434 1434 1435 1434 1435 1435 1436 1437 1438 1439 1441 1442 1443 1445 1446 1447 1448 1449 1451 1453 1456 1458 1459 1461 1462 1464 1466 1468 1470 1473 1475 1476 1478
1523 1522 1522 1521 1520 1519 1518 1518 1517 1516 1516 1516 1515 1514 1513 1512 1512 1511 1510 1508 1507 1506 1504 1502 1501 1499 1497 1496 1493 1491 1492 1491 1490 1488 1486 1482 1480 1478 1475 1472 1470 1466 1463 1459 1454 1449 1446 1442 1438 1436 1434 1432 1430 1429 1431 1431 1430 1430 1431 1432 1434 1435 1436 1437 1438 1439 1441 1443 1444 1445 1446 1449 1452 1454 1455 1456 1458 1461 1463 1465 1467 1469 1471 1473 1475
1521 1520 1520 1519 1517 1517 1516 1515 1514 1514 1514 1514 1513 1512 1512 1510 1509 1508 1506 1505 1503 1502 1501 1499 1498 1495 1494 1492 1489 1488 1490 1489 1487 1485 1483 1480 1478 1476 1472 1469 1466 1463 1460 1456 1452 1448 1443 1439 1435 1431 1430 1429 1426 1424 1425 1426 1426 1426 1426 1428 1430 1430 1431 1432 1434 1435 1437 1440 1441 1442 1444 1446 1448 1450 1451 1452 1455 1457 1459 1462 1464 1466 1468 1470 1472
1520 1519 1518 1517 1516 1515 1514 1513 1513 1512 1512 1511 1511 1510 1509 1508 1506 1505 1503 1502 1500 1499 1498 1496 1495 1493 1491 1488 1486 1486 1485 1485 1484 1482 1480 1478 1476 1472 1469 1465 1462 1458 1455 1451 1447 1443 1439 1435 1430 1426 1423 1423 1421 1418 1419 1420 1421 1422 1422 1423 1425 1426 1426 1428 1431 1432 1433 1435 1438 1440 1441 1442 1445 1446 1446 1448 1451 1453 1455 1458 1460 1462 1464 1466 1468
1518 1518 1517 1516 1514 1513 1512 1511 1511 1510 1509 1509 1508 1507 1506 1505 1504 1502 1501 1499 1497 1496 1495 1494 1493 1491 1488 1486 1484 1483 1482 1481 1481 1479 1478 1476 1473 1469 1466 1462 1458 1454 1451 1447 1443 1438 1433 1429 1424 1419 1415 1414 1414 1412 1412 1413 1415 1416 1418 1419 1421 1421 1422 1424 1427 1428 1429 1431 1434 1436 1437 1439 1441 1442 1442 1444 1446 1448 1451 1454 1456 1458 1460 1462 1464
1516 1516 1515 1513 1512 1511 1511 1510 1508 1507 1506 1506 1505 1504 1504 1503 1501 1499 1498 1496 1495 1493 1492 1491 1490 1489 1486 1483 1482 1482 1481 1479 1479 1477 1476 1473 1470 1467 1464 1459 1455 1450 1447 1443 1439 1434 1427 1421 1415 1410 1405 1403 1403 1403 1403 1406 1408 1411 1414 1415 1416 1417 1418 1420 1422 1424 1426 1428 1431 1433 1435 1437 1438 1439 1438 1440 1442 1444 1446 1449 1451 1454 1456 1458 1460
1512 1512 1512 1510 1510 1510 1509 1508 1506 1504 1504 1504 1503 1502 1502 1501 1499 1496 1495 1493 1492 1490 1489 1489 1488 1487 1485 1482 1480 1480 1480 1478 1477 1476 1474 1471 1468 1465 1462 1456 1451 1447 1442 1438 1433 1426 1420 1412 1405 1399 1393 1390 1390 1392 1395 1398 1401 1405 1408 1409 1411 1414 1415 1416 1418 1420 1423 1425 1427 1430 1432 1433 1434 1435 1435 1436 1439 1441 1443 1445 1447 1450 1452 1454 1456
1509 1509 1509 1508 1508 1508 1507 1507 1505 1503 1502 1502 1501 1501 1500 1499 1497 1494 1492 1491 1490 1488 1487 1486 1486 1485 1484 1482 1480 1480 1479 1477 1476 1474 1471 1469 1466 1463 1459 1454 1449 1444 1438 1433 1425 1417 1409 1402 1395 1387 1381 1378 1379 1382 1386 1390 1394 1399 1401 1402 1406 1410 1412 1412 1414 1417 1419 1421 1424 1427 1428 1429 1430 1431 1432 1434 1436 1438 1440 1441 1443 1446 1448 1451 1453
1506 1506 1506 1506 1506 1505 1505 1504 1504 1503 1502 1501 1501 1500 1499 1497 1495 1492 1491 1489 1488 1486 1485 1484 1483 1483 1482 1481 1480 1479 1478 1476 1474 1472 1469 1467 1465 1461 1457 1452 1447 1442 1436 1429 1421 1412 1403 1395 1387 1379 1373 1371 1371 1374 1377 1382 1387 1392 1394 1397 1401 1405 1407 1409 1411 1413 1415 1416 1419 1423 1424 1425 1427 1429 1430 1431 1433 1434 1435 1436 1438 1441 1443 1446 1448